Wind_Speed
28 29 31 32 33 34 35 36 38 39 40 42 43 44 45 46 47 49 50 50 52 52 53 55 56 57 59 60 61 62 62 63 65 65 66 66 67 68 67 66 65 64 64 63 63 63 63 64 65 65 65 65 64 63 62 61 60 59 59 59 60 58 55 53 51 51 49 45 45 39 36 37 36 37 38 38 39 37 35 33 31 29 29 31 30 30 29 29
27 28 29 31 32 33 35 36 38 39 41 42 44 45 46 47 48 49 50 51 52 53 54 54 55 57 58 60 61 62 63 64 65 66 67 67 68 68 68 68 68 67 66 65 65 64 65 65 66 66 67 67 66 66 65 63 63 62 61 62 62 60 57 54 52 54 50 44 44 40 37 38 37 40 41 40 40 38 36 35 33 31 31 31 30 29 29 29
26 27 29 30 32 33 35 36 38 39 41 42 43 44 46 47 48 49 50 51 52 53 54 55 55 56 57 59 60 62 63 65 65 66 67 68 68 68 69 69 69 69 68 68 66 66 66 66 66 67 68 69 68 68 67 66 65 64 64 65 62 60 59 55 55 58 52 45 45 43 39 37 37 41 43 40 40 39 36 36 34 32 33 33 31 30 30 30
26 28 29 31 32 34 35 36 37 38 40 41 42 43 43 45 45 47 48 49 50 51 52 53 54 55 56 58 59 61 62 64 66 66 67 68 68 68 69 69 70 70 71 70 69 67 67 67 67 67 68 69 69 70 70 69 67 66 66 65 62 61 60 57 60 61 53 47 46 45 43 38 37 40 42 40 39 37 35 35 33 33 34 33 33 32 31 31
27 29 30 31 33 34 35 36 37 38 39 40 41 41 41 42 42 43 43 44 45 47 49 50 51 52 54 55 57 60 61 63 65 66 67 67 68 68 69 69 70 71 71 72 71 70 68 68 68 68 69 69 70 71 70 69 68 68 68 65 64 62 61 62 64 60 52 50 48 47 46 41 39 39 40 39 37 37 37 35 33 34 34 34 34 34 33 32
28 29 31 32 33 34 35 36 38 39 40 40 40 40 40 40 39 40 40 40 40 42 43 45 47 49 50 52 54 57 59 61 64 64 65 66 67 68 68 69 70 70 71 72 72 72 71 70 69 69 69 69 71 70 68 69 69 70 69 65 64 64 66 66 64 60 54 53 49 48 48 45 41 40 40 39 37 39 39 35 34 35 34 35 35 35 34 33
28 29 30 32 33 34 35 37 38 39 39 40 39 38 38 37 37 36 36 36 37 38 39 40 42 44 46 48 50 52 55 58 61 62 63 64 66 67 68 68 69 70 71 72 72 73 72 72 71 70 70 70 71 70 68 70 71 70 68 65 64 67 70 66 64 63 57 55 52 50 50 47 44 43 43 41 38 40 39 35 36 37 35 36 36 36 36 35
28 29 30 32 33 34 36 37 38 37 37 36 35 35 35 36 36 36 36 37 38 39 40 40 41 42 43 44 47 49 52 55 57 59 60 62 64 65 66 67 67 68 69 71 72 73 73 73 73 71 71 70 70 70 69 71 72 69 66 66 67 70 71 66 67 66 59 57 56 54 52 49 48 47 46 43 40 41 38 37 36 36 37 36 36 37 36 36
28 29 31 32 33 34 35 35 34 33 33 33 34 34 36 37 37 38 39 39 41 42 42 42 42 43 43 43 45 47 51 53 54 56 57 59 61 63 64 65 65 66 68 69 71 72 73 73 73 73 73 71 71 71 71 72 71 67 65 67 69 70 70 69 69 66 61 60 58 57 54 52 52 49 48 46 44 42 39 38 38 37 37 37 37 37 37 37
29 30 31 32 33 33 33 32 30 30 31 33 35 36 37 39 39 40 41 42 43 43 44 43 44 44 44 45 45 47 52 53 52 54 55 55 57 59 62 62 62 64 65 68 69 71 72 73 73 74 74 73 73 72 71 70 69 68 66 68 71 71 69 69 69 67 64 62 60 58 56 55 55 52 51 51 48 44 42 41 40 39 38 37 37 37 38 38
29 30 31 32 33 32 30 29 28 30 33 34 36 37 39 40 41 43 44 45 46 46 46 46 47 48 48 48 46 48 53 53 52 53 54 53 53 55 58 59 60 60 62 65 68 69 70 72 73 74 74 74 74 72 71 69 68 69 68 69 72 70 68 68 69 67 65 63 61 58 57 58 58 54 53 55 51 47 45 44 43 41 40 38 38 39 39 40
29 30 31 32 32 30 28 27 29 32 35 36 37 39 40 41 43 44 46 47 48 49 49 49 50 51 51 50 48 50 52 50 51 53 53 53 52 53 55 57 58 58 59 61 65 68 69 70 71 72 74 74 74 73 73 70 69 70 69 69 71 70 69 68 67 67 65 64 61 59 60 60 58 55 54 58 54 48 47 47 45 44 43 41 40 41 42 42
29 29 30 31 30 27 26 27 30 34 37 38 39 40 41 43 45 46 47 48 49 51 51 52 52 53 53 50 47 50 49 47 49 51 53 53 52 52 53 55 56 56 57 58 61 65 67 68 69 71 74 74 74 75 74 71 70 70 69 69 70 71 70 68 66 65 65 63 60 61 61 59 56 54 56 58 53 49 50 48 47 47 46 45 44 43 44 44
29 30 30 30 28 26 27 29 33 36 38 39 39 41 43 45 46 47 48 49 50 50 50 50 50 49 49 46 44 46 45 45 46 48 51 53 52 52 52 53 54 54 55 57 59 62 64 67 67 69 72 73 74 75 73 72 72 71 70 70 70 71 69 67 66 65 63 62 60 60 59 57 55 55 57 56 53 52 51 49 49 48 48 48 47 46 46 46
30 30 30 29 27 26 28 31 35 37 38 39 40 42 44 45 46 47 48 48 48 47 47 46 44 44 43 41 41 43 42 42 44 45 47 49 51 52 52 53 53 53 54 55 57 59 62 64 66 67 69 71 73 72 72 73 72 71 72 70 70 69 67 66 66 64 62 61 60 58 56 53 53 57 57 55 54 53 51 51 50 49 50 49 49 48 47 48
30 31 31 28 26 27 29 33 36 38 39 40 41 42 43 43 44 46 46 45 44 45 45 43 43 43 41 40 40 40 40 41 42 43 43 44 46 49 51 52 53 53 53 54 55 56 59 62 64 66 67 69 71 71 72 72 72 73 73 71 70 68 66 67 67 63 61 62 60 57 53 49 52 59 57 52 51 51 51 51 50 50 51 50 49 49 48 48
31 31 30 27 26 27 30 34 36 37 39 40 41 40 40 40 42 44 44 44 44 45 45 44 43 42 42 42 41 40 40 40 41 41 41 41 41 43 46 49 52 53 53 53 54 55 56 59 62 64 67 69 69 70 72 74 74 73 73 72 71 68 67 68 68 63 61 62 59 57 54 52 56 59 55 50 48 49 50 51 50 50 51 50 49 48 47 46
30 30 28 26 26 27 31 34 36 37 40 41 40 37 36 38 39 43 45 44 44 44 43 41 40 41 41 40 39 40 40 40 41 42 41 40 39 40 43 45 48 51 52 53 54 54 55 57 60 63 66 68 69 70 72 74 72 71 72 73 71 70 69 69 70 65 61 61 59 57 56 54 58 57 51 47 45 46 49 49 49 49 49 49 48 47 45 43
31 30 28 26 26 28 31 34 36 38 40 40 37 34 34 36 37 42 45 43 42 42 39 37 38 38 37 34 35 37 38 38 39 41 42 42 41 42 42 43 46 48 51 53 53 54 54 56 59 63 66 67 68 69 69 69 69 69 70 71 71 71 71 70 72 68 62 60 59 56 55 55 58 57 49 45 43 43 45 45 45 45 46 46 44 43 40 38
31 29 27 26 26 29 31 33 36 38 38 37 35 33 34 35 35 40 44 41 40 40 37 37 37 33 30 30 31 31 33 36 37 38 41 42 42 42 43 44 46 48 50 52 52 54 54 56 60 62 64 65 66 66 65 66 70 71 71 71 70 71 73 71 71 70 62 59 57 55 54 55 58 57 49 45 44 42 43 43 41 41 41 39 37 35 33 34
30 29 27 26 26 29 31 33 36 36 35 34 33 32 33 34 35 37 41 39 38 40 37 36 33 25 24 26 26 26 28 32 35 37 38 39 40 41 42 43 46 49 50 50 52 53 55 58 58 58 59 61 63 64 63 65 69 70 71 72 71 71 73 70 70 70 61 56 55 54 55 55 57 57 51 47 45 43 42 42 39 37 35 33 31 30 30 31
30 29 27 26 27 28 30 33 35 33 34 35 34 32 31 34 35 36 38 38 37 39 36 32 26 19 19 21 21 22 24 28 31 34 35 36 37 39 41 43 45 49 50 52 54 54 56 59 54 53 57 60 62 62 61 64 67 68 71 71 70 70 70 69 69 68 62 56 54 54 55 55 56 56 53 50 47 44 42 41 38 35 34 32 30 29 29 30
30 29 27 26 27 28 29 33 33 32 34 35 34 32 31 32 35 36 37 37 37 36 33 28 22 17 17 17 18 20 22 25 29 31 33 34 35 38 41 43 45 49 52 55 57 56 56 55 51 53 59 61 62 62 62 64 67 68 68 68 68 67 67 68 68 65 62 58 54 54 56 55 56 56 54 52 49 46 44 43 40 37 36 34 32 32 31 30
30 28 26 26 27 27 29 32 32 31 33 35 34 32 32 32 34 36 36 35 35 34 31 27 22 19 18 19 20 22 24 26 29 31 32 33 35 37 40 43 45 48 54 57 57 57 53 51 54 56 59 61 62 63 63 64 65 64 64 64 65 65 65 66 66 63 61 57 55 56 55 54 56 56 54 53 52 50 48 47 43 41 39 37 35 34 32 30
30 28 26 26 27 28 29 31 31 31 32 34 35 34 33 33 34 35 35 33 33 33 30 26 22 20 19 20 22 23 25 26 28 29 29 29 32 34 37 41 44 47 54 58 59 57 52 52 56 56 57 61 61 62 61 61 62 61 62 63 63 65 64 63 64 61 57 56 56 55 53 53 57 56 55 54 53 52 51 49 46 43 40 38 36 34 32 30
30 29 26 26 27 28 29 31 31 31 31 33 35 35 34 34 33 34 34 32 32 32 29 26 22 20 19 19 19 20 23 23 24 25 27 27 29 31 33 36 39 43 51 57 60 59 53 51 54 55 58 59 59 60 61 60 61 61 62 62 63 65 64 61 63 60 56 55 55 54 52 52 56 56 55 55 54 52 51 50 48 44 41 39 37 34 31 28
30 29 27 27 27 28 29 30 32 32 32 32 34 35 35 35 34 34 34 32 32 32 29 27 24 21 20 19 18 18 20 21 22 24 26 26 28 29 29 29 32 37 47 55 59 60 56 52 53 56 57 57 58 60 60 59 60 59 60 61 62 63 62 60 60 57 53 51 51 52 51 51 54 55 55 55 53 52 51 50 48 46 43 41 38 35 31 26
31 30 27 27 28 28 29 31 33 33 32 32 34 35 35 35 34 34 33 32 33 32 29 27 25 22 21 20 19 20 21 23 24 26 26 26 28 28 25 26 27 31 42 51 55 59 58 53 52 55 56 57 58 58 58 59 59 58 59 60 60 60 59 58 57 53 49 48 50 52 51 52 54 55 55 55 53 53 52 50 48 47 45 42 37 34 30 26
31 30 28 27 28 29 30 31 33 34 33 32 34 34 35 35 35 34 33 33 34 33 31 29 26 24 22 21 21 22 24 24 26 27 27 27 27 24 20 23 26 29 39 47 51 55 57 54 51 54 57 56 57 57 58 59 57 58 60 59 58 58 57 55 54 49 47 52 54 52 52 53 54 55 56 55 54 54 52 50 48 46 44 40 37 34 30 27
30 31 29 27 28 29 30 31 33 34 34 34 34 34 35 35 35 35 34 35 36 35 34 31 28 26 23 22 21 22 23 25 27 28 27 26 24 20 18 22 26 30 37 44 49 50 52 54 53 55 56 55 57 58 59 58 57 58 60 58 56 55 54 53 51 48 49 55 55 51 51 52 53 56 55 53 53 53 52 49 47 45 42 40 38 35 30 28
30 31 30 28 28 29 31 31 32 34 34 35 35 35 35 35 34 34 35 36 36 37 38 34 31 29 25 22 23 22 22 22 24 24 24 23 19 16 17 22 27 32 38 42 48 48 50 56 55 54 57 57 58 59 59 58 58 60 60 56 54 53 52 51 49 50 52 54 52 49 51 52 53 55 53 51 52 52 50 47 44 42 41 39 37 34 30 28
29 31 31 30 29 29 31 32 32 34 34 36 37 36 37 36 33 33 34 35 36 38 40 37 34 32 26 23 23 24 22 19 18 18 20 19 15 13 15 22 27 33 38 40 45 47 49 55 54 52 57 59 58 60 60 59 59 61 59 54 52 52 52 51 50 51 52 52 50 49 51 52 53 53 53 53 52 51 48 44 42 40 38 38 36 33 29 29
30 30 31 32 31 30 31 31 33 34 35 37 37 37 38 36 35 34 33 33 36 38 39 38 36 34 28 23 23 24 23 18 15 15 17 16 12 10 15 23 28 33 37 39 43 45 48 55 55 51 55 58 58 60 60 59 61 60 57 55 53 53 54 52 51 52 51 51 51 50 51 53 51 51 54 53 50 48 46 43 42 40 38 37 36 33 31 32
31 30 31 32 32 31 31 31 32 34 35 36 37 37 38 38 37 36 32 31 34 36 39 40 37 34 30 25 22 24 23 16 12 13 15 14 10 13 19 24 31 36 36 37 42 46 49 55 56 52 52 56 57 57 57 57 58 56 54 55 53 52 55 53 52 52 50 50 52 52 53 52 50 51 54 52 47 45 45 43 42 40 39 39 39 37 36 36
33 31 31 32 33 33 31 31 32 33 34 35 35 35 38 40 41 39 34 31 33 35 37 39 39 35 31 27 25 24 21 13 9 10 13 12 10 19 25 25 31 36 35 34 38 45 50 52 53 51 50 54 55 55 55 54 55 54 53 54 51 47 46 48 49 48 48 51 53 53 52 50 50 52 53 50 46 44 45 44 43 43 43 43 44 42 39 38
35 33 32 32 33 34 33 32 31 32 33 34 34 35 37 41 42 40 37 34 35 37 37 38 39 36 32 29 28 25 17 9 7 6 9 10 11 22 27 27 33 34 30 30 33 41 48 48 49 51 50 53 53 52 53 54 53 54 54 53 49 39 34 42 49 49 49 52 53 52 50 50 52 52 51 49 46 45 46 45 45 44 44 45 43 41 40 40
37 35 33 32 33 34 35 33 31 31 32 31 33 34 36 38 40 40 39 35 35 38 37 36 37 36 33 30 29 26 15 7 4 3 7 9 15 25 28 29 35 33 27 27 32 41 46 45 47 51 51 52 51 49 51 52 49 50 55 53 47 37 31 37 46 49 51 53 52 50 48 49 50 50 49 47 44 45 46 45 44 43 43 43 42 40 39 39
39 37 35 33 33 34 35 34 31 31 31 31 33 35 35 37 38 39 39 37 37 36 33 33 34 34 32 30 30 27 15 5 2 2 6 11 19 28 28 28 35 34 26 25 32 41 43 42 45 48 47 48 49 49 50 50 47 46 50 50 46 43 39 38 43 48 51 51 49 47 46 48 50 50 49 45 42 44 44 43 43 43 42 41 40 40 39 39
39 38 36 34 33 34 35 36 33 31 31 32 34 36 35 36 37 37 36 36 35 32 30 31 33 32 30 30 31 27 14 5 2 4 7 13 22 28 27 27 33 33 26 24 31 40 40 38 43 46 43 43 47 48 47 48 51 50 47 45 46 47 44 41 44 46 48 48 47 45 45 48 50 50 48 43 41 42 42 42 42 42 41 39 39 40 39 38
39 38 37 35 33 33 35 36 34 32 31 32 34 34 34 34 34 33 31 33 32 29 29 31 32 30 27 28 29 24 13 4 4 7 11 18 24 28 26 28 32 29 25 25 29 37 38 34 39 42 40 41 45 46 44 46 51 52 51 51 51 51 47 44 46 45 43 45 46 45 45 47 50 49 45 41 39 40 41 40 40 39 39 39 39 39 38 36
40 38 37 35 33 32 33 34 35 32 30 31 33 32 32 32 32 30 29 31 32 30 30 32 32 30 25 25 27 22 11 2 5 8 14 21 26 28 27 29 30 25 24 25 27 33 34 30 35 40 41 43 44 42 41 43 46 49 52 54 51 50 48 46 47 47 44 44 44 45 44 44 47 47 43 39 37 37 39 38 38 38 38 38 38 38 37 35
41 38 36 36 34 32 31 32 34 32 29 30 32 33 32 31 31 29 29 31 32 32 32 32 32 31 27 27 27 21 10 0 6 9 17 24 26 26 27 28 27 24 25 26 28 32 30 25 30 36 37 37 38 39 40 40 42 45 49 49 47 48 48 47 48 47 47 45 44 46 45 42 45 46 42 39 36 35 36 36 36 37 38 39 39 39 38 36
42 39 37 36 35 32 30 30 32 32 30 30 31 31 31 30 30 29 28 31 33 33 34 33 33 33 30 28 27 23 11 2 6 9 19 28 27 26 29 30 27 26 28 27 27 30 28 22 23 31 33 30 33 39 39 39 42 45 47 48 49 50 48 48 45 42 45 47 45 46 45 42 44 43 41 39 36 34 33 34 37 39 40 41 42 41 39 37
44 41 37 35 35 33 31 29 31 31 30 28 29 28 28 28 30 30 28 30 33 34 34 33 32 34 32 27 27 26 13 3 7 10 21 29 28 27 32 32 29 29 28 26 26 28 26 20 20 29 34 31 32 36 37 41 44 46 47 47 50 51 50 49 44 40 46 48 45 43 41 39 41 39 36 36 36 34 33 34 37 39 41 43 43 41 40 39
45 42 38 35 34 33 32 30 30 31 29 27 27 28 27 27 29 30 29 28 30 32 32 33 32 33 31 26 26 29 18 5 10 14 22 27 27 28 33 33 31 31 28 25 27 28 26 22 21 26 30 30 31 34 37 42 44 45 47 46 47 49 48 48 47 47 50 48 45 43 34 28 33 34 31 31 32 33 33 34 38 40 42 43 43 41 41 41
46 44 41 37 34 33 32 30 29 30 30 28 27 28 28 26 26 29 29 26 26 28 30 33 33 31 29 26 26 30 22 9 13 16 22 25 26 29 33 32 30 31 28 26 28 28 26 23 22 25 27 26 30 34 37 41 42 44 47 47 47 48 46 47 48 48 47 44 45 45 34 25 26 29 27 27 28 30 31 33 36 39 42 42 40 41 41 40
48 47 44 40 36 33 32 31 29 29 31 30 27 27 28 27 26 27 28 25 25 26 27 29 31 29 27 24 24 30 24 11 15 18 20 23 25 29 32 32 30 29 27 26 27 27 26 24 22 24 26 26 29 33 36 39 40 42 44 45 47 48 47 47 47 44 42 41 43 43 36 28 25 24 25 25 26 28 29 31 34 37 39 40 39 40 40 37
49 48 47 43 39 34 32 32 29 28 29 29 27 26 26 27 28 28 27 24 25 26 24 25 28 28 25 21 20 28 26 12 17 20 19 21 25 29 31 31 30 28 26 24 25 25 24 23 21 20 23 24 25 28 31 34 37 39 41 42 44 45 46 46 45 43 43 43 42 38 34 28 22 21 24 24 24 26 28 30 33 36 38 39 40 40 38 35
48 47 47 44 40 36 33 32 30 27 26 27 26 24 24 25 27 28 25 22 22 25 25 28 30 27 22 18 17 24 25 14 18 20 18 19 23 28 30 29 28 27 25 23 23 23 21 21 20 18 19 20 20 23 27 31 34 36 38 40 41 42 44 45 45 45 45 44 41 38 37 31 24 21 22 21 22 25 28 30 33 36 37 39 39 38 36 34
46 46 47 45 41 38 34 31 30 27 25 25 25 22 22 24 25 25 24 21 20 23 25 30 32 26 19 15 14 18 19 14 16 19 18 19 22 26 28 27 26 25 24 22 21 21 19 18 19 18 17 18 18 19 24 29 33 34 36 39 40 41 42 43 43 44 44 42 40 40 38 33 27 23 20 20 21 25 27 30 33 35 36 37 37 36 35 35
46 46 47 46 42 38 35 31 30 29 25 23 23 21 19 21 24 24 22 20 20 22 25 30 32 27 20 15 11 11 12 14 16 17 18 19 21 25 26 25 24 23 22 21 19 19 17 16 16 16 16 17 17 18 19 22 28 33 35 37 38 39 40 41 40 41 41 39 39 37 34 30 28 25 22 22 24 26 28 30 33 34 35 35 35 35 35 35
45 45 46 45 42 38 35 32 29 28 26 23 23 22 19 19 22 22 19 18 20 23 26 28 30 28 24 19 15 12 13 17 17 17 18 18 19 22 23 23 22 20 19 18 17 16 15 13 13 14 14 14 15 15 15 16 22 29 33 34 35 37 38 38 38 39 39 37 37 35 31 29 29 27 26 27 28 29 29 30 32 33 34 34 35 35 35 35
Wind_Direction
276 276 275 275 274 274 274 274 273 273 272 271 271 270 268 267 266 265 263 262 260 258 256 254 253 252 251 251 250 249 248 246 245 244 243 242 241 240 239 239 239 238 237 236 233 231 229 228 227 227 227 228 230 231 232 233 234 234 235 235 234 234 234 235 236 235 232 233 235 229 222 223 223 225 226 228 232 234 238 240 242 245 248 249 247 246 247 250
282 281 281 281 280 280 279 278 277 277 276 275 274 272 271 270 268 267 265 264 262 261 259 257 255 253 251 250 250 249 248 247 246 244 243 242 241 240 239 238 238 238 237 236 235 233 231 229 228 227 227 227 228 229 231 231 233 233 234 234 233 233 234 236 238 238 233 232 238 235 228 225 223 227 227 228 231 232 236 239 240 242 244 246 246 245 248 251
289 288 288 287 286 285 284 283 282 280 279 278 276 275 273 271 270 268 266 265 263 262 260 259 257 255 253 252 250 249 248 247 246 245 244 242 241 240 239 238 237 237 237 236 235 234 233 231 229 227 227 227 227 228 229 230 231 232 233 233 231 232 235 236 239 239 234 233 237 237 232 229 226 229 230 227 230 231 233 237 239 240 241 243 245 245 248 251
296 295 294 293 292 290 289 288 287 285 284 282 280 278 277 275 273 271 269 267 265 263 261 260 258 257 255 254 252 250 248 247 246 245 244 243 242 240 239 239 238 237 236 236 235 234 234 233 231 229 227 227 227 227 227 228 229 230 231 230 230 232 236 237 238 239 237 235 238 239 235 233 231 233 234 230 232 233 233 235 236 238 240 242 245 246 248 250
301 300 300 298 297 296 296 295 293 292 290 288 286 284 282 280 279 277 275 273 271 268 266 263 260 258 257 255 254 252 250 248 246 245 244 243 242 241 239 238 238 237 236 235 235 234 233 233 232 230 229 227 227 227 227 227 227 229 230 229 230 233 235 236 238 238 238 238 237 240 238 234 234 236 237 236 235 235 235 234 234 237 238 241 244 247 249 250
307 306 305 304 303 303 301 300 298 297 294 293 291 289 287 285 284 282 281 279 276 274 271 268 264 261 259 258 256 254 253 251 248 246 245 243 242 241 240 238 237 237 236 235 235 234 233 233 233 232 231 229 228 227 227 227 227 228 229 228 229 232 235 235 237 237 238 239 237 239 239 235 235 236 236 237 236 235 235 234 233 236 238 240 243 246 249 250
312 311 310 309 308 307 305 303 300 298 296 294 293 292 290 289 288 287 285 283 281 278 275 272 269 265 262 260 258 256 255 253 250 247 245 243 242 241 240 238 237 236 235 235 235 234 233 232 232 232 232 230 229 228 227 227 228 227 228 229 228 231 235 234 237 236 235 239 238 237 239 237 236 236 236 235 236 237 237 235 233 235 237 239 242 244 247 249
316 315 314 312 310 308 305 302 299 297 296 295 294 294 293 292 291 290 288 287 284 282 280 277 275 271 267 264 261 259 259 256 252 249 246 244 242 240 239 238 237 235 235 235 234 234 233 232 232 232 232 231 231 229 227 227 228 227 227 229 229 230 233 233 236 236 233 237 239 237 238 237 236 237 237 235 235 238 236 234 234 234 236 238 241 243 245 248
320 318 316 313 310 308 305 302 300 299 298 298 297 296 295 294 293 291 290 289 287 285 283 280 279 276 273 269 265 263 261 259 255 252 249 246 243 241 239 238 237 236 234 234 233 233 233 232 231 231 231 231 231 230 229 228 228 228 227 228 230 231 231 232 235 235 234 235 237 237 237 237 237 237 238 235 233 236 235 234 234 234 235 237 240 243 246 248
322 320 317 315 312 310 308 306 304 303 303 302 301 300 298 296 294 293 291 289 287 285 282 280 278 276 275 272 269 266 262 259 256 254 252 248 246 243 240 238 237 236 234 233 232 232 232 231 231 230 230 230 230 230 230 229 228 228 227 227 230 231 231 231 234 235 234 234 234 235 236 237 236 235 238 237 234 235 235 234 234 235 237 238 241 244 247 251
324 322 320 317 315 313 311 309 308 308 307 305 303 302 300 298 297 295 293 291 289 286 282 279 276 275 274 273 272 268 263 260 257 255 254 251 248 245 242 239 237 236 234 232 231 231 231 231 230 230 230 230 230 230 230 230 229 229 227 227 230 231 231 231 233 234 233 233 233 233 236 236 234 232 234 237 235 234 236 237 237 237 239 240 243 247 249 253
326 324 322 319 316 314 312 311 311 310 308 306 305 304 303 302 301 299 297 294 291 288 284 281 278 277 275 274 274 270 265 261 257 254 253 252 250 247 243 240 238 236 234 232 231 230 230 230 229 229 229 229 229 229 229 229 229 229 228 227 230 231 232 231 231 233 233 233 232 233 235 234 232 229 232 236 235 235 238 238 239 240 240 242 244 248 251 254
327 325 323 320 317 314 313 312 312 311 309 309 308 307 307 306 304 302 299 297 294 291 288 286 283 280 278 276 274 270 267 262 256 252 250 250 250 248 245 241 238 236 234 232 230 229 228 228 228 228 228 228 228 228 228 227 228 229 229 228 230 231 231 231 231 232 233 233 232 232 234 233 232 231 231 234 235 235 238 239 241 242 242 242 243 246 250 253
329 327 324 321 317 314 313 312 313 313 312 311 311 310 309 307 305 303 301 299 296 293 291 288 286 283 280 277 273 269 265 260 255 250 247 246 247 248 247 243 239 236 235 233 230 228 227 227 227 227 227 227 227 227 227 227 227 228 229 228 229 230 231 232 231 231 232 233 232 232 233 232 233 234 232 232 234 234 236 238 240 242 243 243 243 244 248 251
330 328 325 322 318 314 312 313 314 314 313 313 312 310 309 309 308 306 304 301 298 295 293 290 286 283 282 279 273 267 262 257 253 249 246 244 245 247 247 245 241 237 235 233 230 228 226 225 225 225 226 226 226 226 226 227 226 226 228 228 229 230 231 232 232 231 231 232 232 232 232 231 233 237 234 230 232 233 235 238 239 241 243 243 243 244 246 249
332 329 326 322 317 314 312 313 315 315 316 315 313 312 312 313 312 311 308 304 299 296 294 291 286 283 284 282 274 266 260 254 249 246 244 244 244 246 247 245 241 237 234 232 230 228 226 224 224 223 223 224 224 224 224 225 225 225 227 227 228 229 230 233 232 230 230 231 231 231 230 231 233 236 235 230 230 233 235 237 238 240 242 243 244 245 246 248
333 330 326 321 316 313 313 315 317 317 317 316 316 316 318 320 320 317 313 307 301 297 295 292 287 284 283 280 273 263 256 251 246 243 242 242 244 246 247 245 241 236 232 231 229 227 225 224 222 222 222 222 222 221 222 223 223 224 225 226 227 228 230 233 233 229 228 230 230 229 228 231 233 233 233 231 229 232 235 236 237 239 241 243 244 245 246 248
333 330 326 321 316 314 315 318 319 319 319 319 320 320 323 327 326 323 318 312 305 299 296 292 288 287 284 278 269 258 253 250 246 243 241 240 241 243 245 245 242 237 232 229 228 226 225 223 221 221 220 220 220 220 220 222 224 224 225 225 226 227 228 231 234 230 227 230 229 228 227 229 234 232 229 231 229 230 233 234 235 237 240 241 243 245 246 248
333 331 327 321 317 317 319 321 321 322 322 323 323 323 327 330 331 330 325 319 309 302 298 296 291 287 284 277 265 257 253 251 248 245 244 241 239 240 242 244 244 240 233 228 226 225 223 222 221 219 219 218 219 221 222 223 224 224 225 226 226 227 228 228 233 231 226 228 229 228 227 228 234 233 227 229 229 228 231 232 233 234 237 239 241 243 244 245
333 331 327 322 320 322 324 325 325 325 326 328 327 327 331 333 335 337 335 328 314 306 304 302 295 285 280 276 266 259 255 253 250 248 246 242 240 241 241 242 244 242 236 229 226 224 222 221 220 219 218 218 219 220 220 220 221 221 222 224 225 227 228 228 231 232 227 228 229 228 228 228 232 234 228 228 229 227 229 230 230 231 234 237 239 240 240 241
333 331 328 324 324 326 328 328 328 330 332 333 331 330 333 336 338 340 342 337 319 312 313 310 302 286 278 278 270 262 256 253 250 248 247 245 242 242 242 242 242 241 238 231 226 224 222 220 219 217 217 217 218 217 216 217 219 220 220 222 222 224 227 227 230 233 230 229 230 228 229 229 231 233 229 227 228 226 227 229 229 230 232 234 235 234 233 234
333 332 329 326 327 329 331 332 333 335 337 338 335 333 335 338 341 341 344 344 330 321 322 318 309 289 279 280 273 265 258 253 252 250 249 249 248 247 245 243 242 239 235 230 226 223 221 219 216 214 214 214 215 214 213 216 218 218 219 221 222 223 226 227 228 231 230 228 228 228 228 229 230 231 229 227 227 226 227 228 227 227 229 229 229 229 228 229
334 332 330 328 329 331 333 336 338 340 342 343 339 335 335 337 341 342 343 346 340 333 329 324 316 299 284 280 275 268 260 256 257 257 256 256 255 254 252 247 243 238 231 227 224 223 221 216 212 213 213 212 213 212 211 214 216 217 218 219 222 223 225 227 227 228 229 227 226 227 226 227 229 229 227 226 226 225 225 226 225 224 225 224 224 225 224 223
336 334 331 330 331 332 336 339 342 343 344 346 344 339 337 337 339 341 342 344 345 343 337 329 322 309 291 279 273 269 265 262 262 263 262 261 259 257 256 251 245 237 228 223 221 222 219 212 211 212 212 211 211 211 210 212 215 215 216 218 220 222 223 226 227 226 228 226 223 225 225 225 228 228 226 225 224 223 223 224 223 221 222 222 221 222 220 218
337 335 333 331 332 334 337 341 344 345 344 347 348 345 340 338 338 338 340 342 344 347 345 336 328 316 298 283 275 270 267 264 261 262 262 263 264 264 261 254 245 238 227 219 217 218 214 210 211 210 210 210 209 210 209 210 213 213 214 215 216 220 221 223 226 224 225 225 223 225 224 224 227 227 225 224 223 223 223 224 223 222 222 222 222 223 220 218
338 337 334 333 333 336 338 341 345 345 344 345 348 349 346 342 339 337 338 341 341 344 347 343 334 323 307 292 283 274 268 263 260 261 262 267 273 274 269 255 242 236 226 215 212 213 210 209 209 207 209 209 207 208 207 208 211 211 212 213 214 218 218 219 223 222 222 224 224 223 223 224 227 227 225 224 223 222 223 224 224 223 222 222 222 221 219 218
340 338 335 333 334 337 339 342 345 345 344 343 346 349 350 347 344 339 338 339 340 339 342 343 337 330 315 298 289 278 267 265 266 266 267 273 279 281 271 248 233 229 221 211 208 209 207 207 206 205 206 206 206 207 205 206 208 210 211 212 213 217 217 217 220 220 219 222 223 221 220 223 227 227 225 225 223 222 222 222 223 223 222 222 221 220 218 215
341 339 336 334 334 336 340 344 347 346 344 343 344 347 349 349 348 345 340 339 339 336 336 337 335 333 323 304 291 279 268 267 269 271 275 280 285 284 268 239 224 221 215 207 205 205 205 206 204 202 204 204 204 204 204 205 206 208 210 210 211 214 215 215 218 216 214 217 219 219 218 220 225 226 224 224 222 222 221 220 220 221 221 221 221 219 217 214
343 341 337 334 334 335 339 345 347 347 346 344 344 345 347 348 348 348 344 341 341 338 334 332 328 328 327 316 301 285 274 270 270 273 279 285 288 283 260 230 217 211 206 203 201 200 203 205 203 201 201 202 202 202 203 203 204 207 209 209 209 212 213 213 214 211 210 215 217 217 217 219 224 226 224 222 221 220 220 219 219 220 220 219 220 218 215 214
343 344 340 335 334 335 338 343 347 348 348 347 345 345 346 346 346 346 345 343 344 341 336 332 326 323 322 323 316 297 286 278 274 277 280 283 285 278 249 219 207 202 199 198 195 194 201 204 201 200 198 199 200 201 201 200 201 206 209 208 207 210 211 211 211 206 208 215 216 215 217 219 223 226 224 221 220 220 219 218 217 218 218 217 217 217 213 212
343 345 343 337 334 335 338 341 345 347 349 349 347 345 346 347 345 344 344 345 347 346 343 338 331 325 319 322 322 310 300 289 281 279 276 277 279 271 240 208 197 195 194 194 192 191 198 201 199 197 196 197 199 199 199 197 199 205 207 207 206 208 209 209 208 205 208 213 214 213 216 218 222 226 225 222 221 221 219 217 216 216 216 216 216 216 212 211
343 345 346 342 336 336 338 340 343 346 348 349 347 345 346 348 347 344 343 345 349 350 349 345 338 332 325 325 324 316 309 301 291 280 270 272 275 264 227 197 192 192 190 192 193 192 196 198 196 195 195 196 197 198 197 195 198 203 204 204 205 206 206 205 206 206 209 212 212 212 216 218 220 223 225 222 220 220 218 215 215 215 215 216 216 215 211 211
343 344 347 346 341 338 338 339 342 345 347 349 348 347 348 348 348 346 343 344 347 349 350 347 343 337 331 332 329 320 315 304 293 281 265 266 270 246 201 183 184 185 186 191 193 192 194 195 194 194 196 196 195 197 197 195 198 200 200 202 203 204 204 203 205 206 207 211 210 210 215 218 219 222 225 223 218 217 217 213 212 212 212 213 214 213 210 211
344 342 346 348 345 342 339 339 342 344 347 350 350 350 352 352 350 348 345 344 343 345 347 344 342 339 334 335 333 324 319 307 287 275 261 261 254 212 191 181 178 179 182 188 192 193 193 193 193 193 194 195 194 196 196 195 198 198 198 202 203 205 206 203 204 205 205 209 210 210 214 217 218 221 224 223 217 215 215 211 209 209 208 209 210 209 207 209
347 343 344 347 347 346 344 342 342 344 347 351 351 352 355 355 354 351 348 345 343 345 347 341 338 338 334 335 339 332 323 310 286 267 251 255 234 197 187 178 173 174 177 181 188 195 194 194 194 192 191 193 194 195 194 194 197 196 196 201 201 202 205 203 202 202 203 208 211 209 212 215 217 220 222 220 215 212 213 210 207 207 207 207 208 207 206 209
349 345 344 345 347 349 349 346 343 344 349 352 351 354 357 356 355 353 347 344 344 345 347 342 336 334 330 332 342 341 329 307 285 262 241 241 210 185 177 170 169 170 171 176 186 192 192 192 195 192 191 193 193 193 194 193 195 195 195 199 199 197 202 202 200 201 202 208 211 209 210 214 217 219 221 218 213 210 211 209 206 206 206 208 208 207 208 210
351 348 344 344 347 350 351 349 345 346 351 352 351 356 360 359 358 354 347 343 344 343 344 344 339 333 324 327 341 345 334 301 276 245 219 211 188 177 171 168 170 168 164 175 187 188 187 190 194 192 190 192 190 191 195 193 191 194 197 197 194 192 197 199 199 202 203 207 212 209 208 214 218 221 222 218 212 210 210 208 206 206 207 208 208 208 210 212
351 349 346 344 347 349 351 351 348 348 351 351 352 355 360 3 3 359 350 344 342 341 343 345 343 336 323 321 338 345 334 298 252 187 187 187 180 175 171 169 172 170 165 173 184 183 183 191 194 191 190 191 190 191 194 192 188 191 196 198 197 194 194 193 195 201 204 207 212 210 208 214 218 221 222 217 212 211 210 208 207 206 207 207 207 208 211 213
351 350 348 345 345 348 352 352 350 351 351 352 354 356 360 5 7 4 357 351 347 345 345 345 345 342 326 318 334 345 336 290 195 144 165 176 173 171 170 169 171 171 169 171 180 181 181 189 193 190 188 189 191 191 192 192 190 188 188 195 200 200 198 196 194 198 202 206 211 210 209 214 218 220 220 214 210 211 210 208 207 206 206 207 206 209 212 215
353 351 350 347 344 347 352 353 352 352 353 353 355 357 1 5 7 7 3 359 358 354 350 348 349 349 333 323 336 347 340 290 178 154 164 170 167 166 167 168 168 171 171 169 174 179 181 186 190 188 186 187 190 191 190 193 193 189 188 193 196 198 199 198 196 197 199 204 210 211 209 213 218 220 218 213 208 210 211 209 207 206 205 206 206 208 212 215
355 352 351 349 346 347 351 354 353 353 353 354 355 358 3 6 6 5 1 359 360 358 356 353 352 354 345 336 344 349 342 294 166 160 165 167 166 166 167 166 165 167 171 167 169 176 178 182 187 186 186 188 189 189 190 191 191 190 194 196 196 196 196 195 196 198 198 202 208 209 209 214 219 218 218 216 209 208 211 209 206 206 205 206 207 208 210 212
357 354 352 351 349 347 349 353 355 354 353 354 356 358 3 6 7 4 360 359 360 360 360 357 355 356 349 345 353 356 349 137 151 157 165 165 164 167 167 165 162 162 168 169 170 172 169 172 186 188 186 187 188 188 188 189 189 191 195 197 196 196 195 195 197 198 198 201 204 207 207 212 218 217 216 217 212 207 209 209 205 204 203 205 206 207 208 210
358 357 354 352 351 348 348 352 356 356 356 357 358 359 1 3 6 6 1 359 1 1 1 359 356 355 350 348 360 5 2 131 142 153 166 166 164 168 169 164 158 159 164 168 173 172 164 161 178 182 180 184 188 188 187 187 188 190 193 194 195 195 195 197 200 201 203 203 204 207 207 210 216 217 216 217 215 209 207 207 205 203 202 204 205 206 207 209
359 359 356 353 352 350 348 351 356 359 1 0 359 359 1 2 3 6 4 2 2 3 4 1 355 354 353 352 2 10 12 125 139 151 167 167 165 170 171 163 156 156 161 165 171 172 164 157 169 177 178 184 187 186 187 187 187 187 190 194 196 196 196 197 198 201 202 203 205 209 211 213 217 219 216 216 217 213 206 203 204 203 202 204 205 204 206 208
357 358 358 355 353 351 350 350 354 358 2 3 0 358 2 5 3 3 4 5 6 4 3 1 358 358 358 355 3 13 19 79 125 144 163 166 167 171 171 165 157 156 159 162 165 166 162 158 166 176 180 184 185 185 188 188 187 187 190 194 197 197 197 197 198 200 200 201 204 207 207 210 218 221 218 216 217 215 208 203 202 202 203 205 205 204 205 208
356 358 359 358 356 353 351 351 352 355 359 4 3 358 0 6 4 2 2 6 11 7 1 3 4 3 0 356 5 16 21 68 117 137 156 163 167 169 168 166 161 159 160 159 160 161 159 159 166 172 174 179 186 189 190 189 189 190 190 192 194 196 197 198 200 201 200 201 205 206 202 201 212 217 217 215 215 213 209 205 204 204 204 205 205 205 207 209
357 358 359 358 357 355 353 352 352 354 358 2 4 0 358 2 4 5 4 8 16 11 4 8 9 6 2 358 7 18 25 70 122 133 147 158 166 167 166 165 163 163 163 157 158 160 158 160 166 170 171 178 189 193 192 190 190 192 192 193 193 194 195 197 198 198 199 203 208 207 203 202 207 210 210 211 211 209 207 205 205 205 205 205 205 207 209 210
357 358 358 357 356 356 355 353 352 355 358 1 4 2 358 0 4 7 9 14 19 14 9 11 10 6 5 1 10 23 28 69 127 134 140 154 166 167 165 164 163 163 163 157 157 161 160 160 162 165 171 179 189 193 193 192 192 193 194 195 195 196 195 196 197 198 200 204 207 207 203 199 198 203 208 209 206 204 205 205 203 203 203 203 204 206 208 208
356 356 357 357 356 356 355 354 352 354 357 0 4 3 360 2 5 7 11 19 21 16 14 14 11 11 10 4 14 26 29 65 126 137 140 149 163 166 163 163 163 163 162 158 157 158 160 162 161 162 169 178 186 190 190 192 193 194 195 196 198 199 199 198 198 200 202 202 203 204 201 196 192 199 207 205 201 201 203 203 202 201 201 201 203 205 205 205
356 355 357 357 356 354 355 354 352 352 355 358 3 5 2 3 7 9 13 19 21 18 16 12 13 19 21 11 13 23 31 69 123 140 142 146 157 163 162 162 163 163 161 158 157 156 156 163 166 166 169 177 186 191 192 193 193 194 196 198 199 200 202 202 202 203 203 202 203 203 199 192 189 195 198 194 194 198 200 200 201 200 199 199 200 200 201 202
355 355 356 357 356 354 353 354 353 352 353 355 1 7 6 5 9 13 16 20 20 20 17 14 17 26 33 33 31 32 51 89 121 140 145 145 152 158 161 161 161 163 162 157 156 157 157 160 165 169 173 180 187 191 192 194 196 197 198 199 200 202 203 204 205 206 205 204 205 204 197 186 184 187 187 185 188 193 195 196 198 198 197 196 195 196 199 202
353 354 355 357 357 354 351 352 354 352 351 351 357 4 7 8 11 16 23 24 25 26 22 16 21 30 37 45 54 66 88 105 119 136 144 144 148 154 159 160 158 159 159 157 155 158 161 160 163 170 178 185 188 186 185 190 197 200 199 199 202 204 205 206 206 207 208 206 206 203 191 179 178 182 185 186 186 188 190 192 194 196 195 193 192 195 200 205
Height
5747 5746 5745 5745 5744 5743 5742 5742 5741 5740 5739 5739 5738 5737 5737 5736 5736 5735 5735 5735 5734 5734 5735 5735 5736 5736 5737 5737 5738 5740 5741 5742 5743 5745 5748 5751 5754 5756 5760 5763 5766 5770 5773 5776 5779 5782 5785 5788 5791 5795 5798 5800 5803 5806 5809 5811 5813 5815 5816 5818 5818 5822 5826 5830 5834 5836 5839 5843 5843 5847 5851 5852 5853 5854 5855 5856 5857 5858 5860 5862 5863 5864 5865 5865 5867 5868 5870 5871
5743 5742 5741 5741 5740 5739 5738 5737 5736 5735 5734 5733 5732 5731 5730 5730 5729 5729 5728 5728 5727 5727 5727 5728 5728 5729 5729 5729 5730 5732 5733 5733 5735 5737 5739 5742 5745 5748 5752 5756 5759 5763 5765 5768 5772 5775 5778 5781 5785 5788 5791 5794 5797 5800 5802 5805 5807 5809 5812 5812 5814 5819 5823 5827 5830 5831 5835 5840 5841 5844 5846 5848 5851 5850 5851 5853 5854 5856 5858 5859 5861 5863 5863 5863 5864 5866 5867 5868
5739 5738 5737 5736 5735 5734 5733 5732 5731 5730 5728 5727 5726 5725 5724 5723 5722 5721 5721 5720 5720 5720 5720 5720 5720 5721 5721 5721 5722 5724 5724 5724 5726 5728 5730 5733 5737 5741 5744 5748 5752 5755 5758 5760 5764 5768 5771 5775 5778 5782 5785 5787 5791 5793 5796 5799 5801 5805 5807 5806 5811 5817 5820 5824 5825 5824 5831 5836 5837 5839 5842 5845 5848 5847 5848 5850 5851 5854 5856 5857 5859 5860 5861 5861 5862 5864 5865 5866
5735 5734 5732 5731 5730 5729 5728 5726 5725 5723 5722 5721 5719 5718 5717 5715 5715 5714 5713 5713 5713 5712 5712 5713 5713 5713 5713 5713 5714 5715 5716 5716 5717 5719 5722 5725 5729 5733 5736 5739 5743 5746 5750 5752 5756 5761 5764 5768 5771 5775 5777 5780 5784 5787 5789 5793 5797 5800 5800 5802 5809 5814 5815 5819 5818 5819 5826 5832 5833 5835 5838 5842 5844 5844 5845 5847 5849 5852 5855 5855 5857 5858 5858 5859 5859 5861 5862 5864
5730 5729 5728 5727 5725 5724 5722 5721 5719 5717 5716 5714 5712 5711 5710 5709 5708 5707 5706 5706 5705 5705 5704 5705 5705 5706 5706 5706 5706 5706 5707 5706 5708 5711 5714 5717 5720 5724 5727 5730 5734 5738 5741 5745 5749 5753 5757 5761 5764 5767 5770 5774 5777 5779 5784 5788 5792 5794 5795 5800 5806 5809 5810 5812 5811 5816 5823 5826 5829 5831 5834 5839 5840 5841 5843 5844 5847 5850 5851 5852 5854 5855 5856 5857 5857 5858 5860 5862
5726 5725 5724 5722 5721 5719 5717 5716 5714 5712 5710 5708 5707 5705 5704 5703 5701 5701 5700 5699 5699 5698 5697 5697 5697 5698 5698 5698 5698 5698 5698 5696 5699 5705 5707 5708 5711 5714 5718 5722 5725 5729 5733 5736 5740 5745 5750 5753 5756 5760 5764 5768 5770 5774 5780 5783 5786 5788 5791 5797 5802 5804 5803 5805 5808 5813 5818 5820 5825 5828 5829 5834 5837 5838 5839 5841 5844 5845 5846 5849 5852 5852 5854 5855 5855 5856 5857 5859
5723 5721 5720 5718 5717 5715 5713 5711 5709 5707 5706 5704 5702 5700 5699 5697 5696 5696 5695 5693 5692 5691 5691 5690 5690 5691 5691 5691 5691 5690 5689 5687 5691 5696 5697 5699 5702 5706 5709 5713 5717 5720 5724 5728 5732 5736 5741 5745 5749 5753 5757 5761 5764 5769 5775 5777 5779 5782 5787 5792 5798 5798 5795 5802 5805 5807 5814 5816 5820 5823 5825 5829 5833 5834 5835 5838 5841 5841 5843 5847 5848 5850 5851 5852 5853 5854 5855 5856
5720 5718 5717 5715 5713 5712 5710 5708 5706 5704 5702 5700 5698 5696 5695 5693 5692 5691 5690 5688 5686 5685 5684 5683 5684 5684 5684 5684 5684 5683 5680 5679 5683 5686 5689 5691 5694 5698 5701 5704 5708 5712 5715 5719 5724 5728 5732 5737 5742 5746 5749 5754 5758 5763 5768 5769 5771 5777 5784 5788 5791 5790 5791 5799 5798 5801 5810 5812 5814 5818 5821 5825 5828 5829 5831 5835 5837 5837 5840 5843 5844 5847 5848 5850 5850 5851 5852 5852
5717 5715 5714 5712 5710 5708 5706 5704 5702 5700 5698 5696 5694 5692 5691 5689 5688 5686 5684 5683 5680 5679 5678 5677 5677 5676 5677 5677 5677 5677 5672 5671 5676 5678 5680 5683 5686 5689 5692 5696 5699 5703 5707 5711 5715 5719 5724 5729 5734 5738 5741 5747 5751 5755 5759 5762 5767 5774 5781 5783 5783 5783 5787 5792 5793 5797 5804 5807 5810 5814 5818 5821 5822 5825 5827 5830 5833 5834 5837 5839 5841 5844 5845 5847 5847 5848 5849 5849
5713 5712 5710 5708 5706 5704 5702 5700 5698 5696 5694 5692 5690 5688 5686 5684 5683 5681 5679 5677 5675 5673 5672 5671 5670 5669 5669 5668 5670 5669 5663 5664 5669 5669 5671 5675 5678 5681 5684 5688 5691 5694 5698 5702 5706 5710 5715 5720 5725 5728 5733 5739 5743 5748 5753 5757 5764 5769 5774 5777 5775 5776 5782 5786 5788 5793 5798 5802 5806 5810 5814 5816 5817 5821 5822 5824 5828 5831 5833 5835 5837 5840 5841 5843 5844 5845 5846 5846
5710 5708 5706 5704 5701 5699 5698 5696 5694 5692 5690 5688 5686 5684 5682 5680 5677 5675 5673 5670 5668 5667 5665 5664 5662 5662 5661 5660 5663 5659 5653 5658 5663 5662 5664 5667 5670 5673 5675 5679 5682 5685 5689 5694 5698 5702 5707 5711 5716 5721 5727 5731 5736 5743 5747 5753 5759 5761 5766 5770 5768 5771 5776 5781 5784 5788 5793 5797 5801 5806 5809 5809 5811 5816 5819 5818 5822 5827 5829 5831 5834 5836 5838 5840 5841 5842 5842 5843
5707 5705 5703 5700 5698 5696 5694 5693 5691 5689 5686 5684 5682 5679 5677 5675 5672 5669 5667 5664 5662 5659 5657 5656 5654 5653 5652 5654 5655 5647 5645 5652 5654 5655 5657 5659 5661 5663 5667 5671 5674 5677 5681 5685 5689 5693 5699 5703 5709 5714 5718 5723 5731 5735 5739 5747 5753 5754 5760 5764 5764 5767 5770 5774 5779 5783 5788 5791 5797 5802 5802 5803 5806 5812 5816 5813 5817 5825 5825 5827 5830 5832 5834 5836 5838 5838 5839 5840
5703 5701 5699 5697 5694 5693 5691 5690 5688 5685 5682 5680 5678 5675 5672 5670 5666 5663 5660 5657 5654 5651 5649 5647 5646 5644 5644 5647 5645 5637 5639 5644 5645 5647 5649 5650 5652 5654 5658 5662 5666 5670 5673 5677 5681 5686 5691 5695 5701 5706 5709 5717 5722 5724 5732 5741 5745 5748 5753 5757 5759 5761 5763 5768 5775 5779 5782 5787 5792 5796 5796 5799 5803 5808 5810 5809 5815 5821 5821 5824 5826 5827 5830 5832 5834 5835 5836 5837
5700 5698 5695 5693 5691 5689 5688 5686 5684 5681 5678 5676 5673 5671 5667 5664 5660 5657 5654 5650 5647 5644 5641 5639 5637 5635 5636 5639 5635 5630 5633 5635 5635 5638 5639 5642 5644 5646 5650 5654 5658 5662 5666 5669 5673 5678 5683 5687 5693 5697 5702 5709 5712 5718 5729 5733 5737 5742 5746 5750 5753 5755 5759 5764 5770 5774 5778 5782 5786 5791 5793 5796 5801 5803 5803 5807 5812 5815 5817 5820 5822 5823 5825 5828 5830 5832 5833 5834
5697 5694 5692 5690 5688 5686 5684 5683 5680 5677 5675 5672 5669 5666 5662 5658 5654 5651 5647 5643 5640 5636 5634 5631 5630 5627 5628 5631 5627 5624 5626 5627 5628 5630 5631 5635 5637 5639 5642 5646 5651 5655 5658 5661 5666 5670 5675 5680 5684 5689 5696 5701 5706 5715 5722 5724 5731 5736 5737 5743 5748 5751 5756 5759 5763 5768 5774 5778 5781 5787 5789 5793 5800 5798 5796 5803 5807 5810 5814 5816 5818 5820 5821 5824 5827 5829 5830 5831
5693 5691 5688 5686 5685 5683 5681 5679 5677 5674 5671 5668 5664 5661 5657 5653 5649 5645 5641 5637 5633 5629 5626 5624 5622 5620 5621 5621 5620 5619 5619 5619 5621 5623 5625 5628 5630 5632 5635 5638 5642 5646 5650 5654 5658 5663 5667 5672 5676 5682 5687 5692 5699 5707 5712 5716 5722 5727 5731 5739 5744 5748 5753 5754 5755 5763 5770 5772 5776 5782 5786 5791 5795 5791 5790 5798 5803 5807 5810 5812 5814 5816 5817 5820 5823 5825 5827 5829
5691 5688 5686 5684 5682 5680 5678 5676 5673 5670 5667 5664 5660 5656 5652 5648 5644 5639 5635 5630 5626 5622 5619 5617 5615 5613 5613 5613 5613 5612 5611 5613 5615 5617 5619 5621 5624 5626 5628 5631 5634 5639 5643 5647 5651 5656 5660 5664 5669 5674 5679 5684 5692 5699 5702 5706 5713 5721 5729 5735 5740 5744 5748 5748 5749 5757 5764 5766 5771 5778 5782 5786 5786 5784 5787 5794 5799 5803 5805 5807 5810 5813 5814 5817 5819 5821 5824 5827
5688 5686 5683 5681 5679 5678 5675 5672 5670 5666 5663 5659 5655 5652 5648 5644 5639 5634 5629 5624 5619 5614 5612 5610 5608 5606 5605 5604 5605 5604 5605 5607 5609 5611 5613 5616 5619 5620 5622 5624 5627 5631 5636 5640 5644 5649 5653 5657 5661 5666 5670 5676 5683 5688 5693 5702 5713 5722 5727 5731 5735 5738 5741 5744 5743 5750 5759 5762 5767 5773 5777 5781 5779 5779 5786 5790 5795 5799 5800 5803 5806 5809 5810 5812 5815 5818 5821 5824
5685 5683 5681 5679 5677 5675 5672 5669 5666 5663 5659 5655 5651 5647 5644 5640 5636 5631 5625 5618 5612 5607 5605 5603 5601 5599 5597 5597 5597 5597 5600 5602 5603 5605 5606 5609 5612 5613 5616 5619 5621 5625 5628 5632 5637 5642 5646 5650 5652 5656 5661 5670 5679 5685 5695 5706 5713 5717 5721 5725 5729 5731 5734 5738 5738 5742 5753 5757 5762 5768 5773 5777 5774 5775 5784 5788 5792 5795 5796 5800 5802 5805 5807 5809 5812 5815 5819 5821
5683 5680 5678 5676 5674 5672 5669 5666 5663 5659 5655 5651 5647 5643 5640 5636 5632 5627 5621 5613 5605 5600 5599 5597 5594 5593 5591 5590 5590 5593 5595 5596 5598 5599 5599 5602 5606 5608 5611 5613 5616 5618 5621 5627 5633 5636 5639 5641 5644 5651 5661 5671 5678 5685 5694 5699 5700 5704 5711 5715 5721 5726 5727 5734 5735 5736 5748 5755 5759 5765 5769 5772 5771 5772 5781 5785 5788 5791 5793 5795 5799 5801 5804 5806 5810 5813 5816 5817
5681 5678 5676 5673 5671 5669 5667 5663 5660 5656 5652 5648 5644 5640 5636 5632 5628 5624 5618 5612 5602 5595 5594 5591 5587 5587 5586 5585 5586 5589 5590 5591 5591 5592 5593 5597 5601 5602 5604 5607 5609 5611 5616 5622 5626 5628 5630 5631 5639 5651 5662 5668 5671 5677 5683 5687 5691 5698 5704 5708 5714 5719 5721 5729 5732 5733 5745 5753 5756 5761 5763 5766 5767 5770 5776 5780 5783 5788 5790 5792 5796 5799 5801 5804 5807 5809 5811 5812
5678 5676 5673 5671 5669 5666 5664 5661 5657 5653 5649 5645 5641 5637 5633 5629 5625 5620 5615 5610 5601 5593 5590 5587 5583 5583 5583 5582 5583 5585 5586 5586 5585 5586 5589 5592 5595 5596 5597 5600 5602 5605 5610 5613 5616 5618 5619 5626 5641 5652 5655 5657 5661 5668 5676 5681 5687 5692 5697 5703 5709 5714 5719 5724 5728 5731 5740 5748 5752 5756 5758 5761 5763 5766 5771 5776 5781 5785 5787 5790 5793 5796 5798 5800 5803 5805 5807 5808
5676 5673 5671 5668 5666 5664 5661 5658 5654 5650 5646 5642 5638 5633 5630 5625 5621 5617 5612 5607 5600 5593 5588 5584 5582 5581 5581 5580 5580 5581 5582 5582 5581 5582 5585 5587 5589 5589 5590 5593 5595 5598 5600 5603 5607 5611 5615 5629 5642 5643 5643 5648 5655 5663 5670 5674 5678 5685 5692 5699 5705 5711 5715 5718 5724 5729 5734 5742 5747 5749 5752 5756 5758 5762 5767 5772 5776 5781 5783 5785 5788 5791 5793 5796 5798 5800 5802 5805
5674 5671 5669 5666 5663 5661 5658 5655 5651 5647 5643 5639 5635 5630 5626 5622 5618 5613 5609 5604 5598 5593 5587 5583 5581 5579 5578 5578 5577 5578 5578 5578 5577 5577 5579 5581 5582 5583 5583 5586 5587 5588 5591 5595 5601 5606 5616 5628 5631 5631 5637 5644 5651 5656 5662 5667 5672 5682 5689 5695 5701 5706 5711 5715 5720 5726 5730 5736 5741 5742 5747 5751 5753 5757 5762 5766 5771 5775 5778 5780 5783 5786 5789 5791 5794 5796 5799 5802
5672 5669 5666 5664 5661 5658 5655 5652 5648 5644 5640 5636 5632 5627 5623 5619 5615 5610 5606 5601 5596 5592 5587 5582 5579 5577 5575 5575 5574 5574 5574 5573 5574 5573 5575 5576 5576 5576 5576 5576 5578 5580 5583 5589 5595 5602 5612 5619 5620 5627 5634 5639 5645 5651 5658 5664 5670 5678 5683 5689 5695 5699 5705 5711 5714 5720 5726 5729 5735 5739 5744 5747 5748 5752 5757 5761 5765 5770 5773 5776 5779 5783 5786 5788 5791 5793 5797 5800
5670 5667 5664 5661 5658 5655 5652 5649 5645 5641 5637 5633 5629 5625 5620 5616 5611 5607 5603 5599 5594 5590 5586 5581 5578 5575 5573 5572 5571 5570 5569 5569 5569 5570 5570 5570 5570 5569 5568 5568 5569 5572 5576 5583 5589 5596 5605 5611 5616 5623 5628 5633 5641 5646 5653 5661 5666 5672 5677 5684 5690 5692 5700 5706 5708 5715 5721 5726 5732 5736 5740 5744 5744 5748 5753 5756 5761 5766 5770 5773 5776 5780 5783 5785 5788 5791 5794 5798
5668 5665 5662 5659 5656 5653 5649 5646 5642 5638 5634 5631 5627 5622 5618 5613 5608 5604 5600 5596 5591 5587 5583 5580 5576 5573 5570 5569 5568 5567 5565 5565 5565 5565 5565 5565 5563 5562 5561 5561 5562 5564 5570 5577 5581 5589 5599 5604 5609 5616 5622 5629 5636 5642 5650 5656 5661 5668 5674 5680 5686 5689 5695 5701 5704 5712 5720 5724 5727 5730 5736 5740 5740 5744 5748 5752 5757 5762 5765 5769 5772 5776 5779 5782 5785 5789 5792 5796
5666 5662 5659 5657 5654 5650 5647 5643 5640 5636 5632 5628 5624 5620 5615 5611 5606 5601 5597 5593 5589 5585 5581 5578 5574 5571 5567 5566 5564 5563 5562 5561 5560 5559 5559 5559 5557 5555 5554 5555 5558 5560 5565 5571 5576 5586 5595 5599 5605 5612 5618 5624 5631 5640 5647 5652 5658 5665 5669 5675 5681 5685 5691 5697 5701 5710 5717 5719 5720 5725 5732 5734 5735 5739 5743 5747 5753 5757 5761 5765 5768 5772 5775 5779 5784 5787 5791 5793
5664 5661 5657 5654 5651 5648 5645 5641 5638 5634 5630 5626 5621 5617 5613 5608 5604 5599 5595 5591 5587 5582 5579 5575 5572 5568 5565 5563 5561 5559 5558 5557 5556 5554 5553 5553 5551 5549 5548 5549 5553 5555 5560 5566 5574 5584 5590 5595 5602 5608 5613 5621 5629 5636 5641 5647 5655 5660 5663 5670 5677 5681 5687 5693 5699 5707 5712 5711 5714 5722 5727 5730 5733 5734 5737 5743 5748 5751 5757 5761 5765 5769 5773 5778 5782 5785 5788 5790
5662 5659 5656 5652 5649 5645 5642 5639 5636 5632 5628 5623 5619 5615 5610 5606 5601 5596 5593 5589 5585 5580 5576 5573 5569 5566 5563 5560 5557 5554 5553 5552 5550 5549 5548 5547 5545 5544 5544 5545 5548 5552 5557 5563 5571 5580 5585 5590 5596 5602 5610 5618 5624 5629 5635 5643 5652 5655 5659 5666 5673 5679 5684 5690 5696 5703 5705 5705 5712 5719 5723 5727 5730 5730 5734 5740 5744 5748 5753 5757 5762 5767 5771 5776 5779 5782 5785 5787
5661 5657 5654 5650 5647 5644 5640 5637 5634 5630 5626 5621 5617 5613 5608 5604 5599 5594 5591 5587 5583 5578 5574 5570 5566 5562 5559 5557 5553 5550 5548 5547 5545 5544 5543 5542 5541 5540 5541 5542 5546 5550 5555 5561 5568 5574 5579 5584 5591 5599 5606 5612 5618 5624 5630 5639 5646 5649 5655 5663 5669 5675 5681 5687 5693 5696 5698 5703 5711 5716 5719 5723 5725 5727 5732 5737 5741 5746 5750 5756 5761 5765 5769 5773 5776 5780 5783 5785
5659 5656 5652 5649 5645 5642 5638 5635 5632 5628 5625 5620 5615 5611 5606 5602 5597 5593 5589 5584 5581 5576 5571 5567 5563 5559 5556 5553 5550 5546 5544 5542 5541 5540 5539 5539 5539 5538 5538 5541 5545 5549 5554 5560 5566 5570 5575 5582 5590 5597 5602 5607 5614 5620 5626 5633 5638 5643 5651 5659 5665 5671 5676 5682 5687 5692 5698 5704 5708 5712 5715 5718 5721 5726 5729 5732 5737 5743 5748 5755 5759 5763 5767 5771 5774 5778 5780 5782
5657 5654 5651 5647 5644 5640 5637 5633 5630 5626 5623 5618 5613 5609 5604 5599 5595 5591 5587 5582 5578 5574 5569 5565 5560 5556 5553 5550 5547 5543 5541 5539 5538 5537 5536 5536 5536 5536 5537 5539 5544 5549 5554 5560 5565 5569 5574 5580 5587 5594 5598 5604 5611 5616 5622 5628 5633 5640 5648 5655 5661 5666 5671 5678 5684 5690 5696 5700 5703 5708 5711 5714 5719 5723 5724 5727 5734 5741 5747 5751 5756 5760 5764 5768 5771 5774 5776 5778
5655 5652 5649 5646 5642 5639 5635 5632 5628 5625 5621 5616 5612 5608 5603 5598 5593 5589 5585 5581 5577 5572 5567 5563 5559 5555 5551 5547 5544 5540 5537 5535 5535 5534 5534 5534 5535 5536 5537 5539 5542 5548 5553 5560 5565 5569 5574 5578 5584 5591 5597 5603 5609 5616 5622 5629 5635 5641 5649 5654 5660 5665 5670 5677 5683 5688 5693 5696 5700 5704 5706 5711 5717 5719 5720 5725 5733 5740 5743 5747 5752 5756 5760 5763 5766 5768 5770 5773
5654 5650 5647 5644 5641 5637 5634 5630 5626 5623 5619 5615 5610 5606 5601 5596 5591 5587 5583 5579 5575 5571 5566 5561 5557 5553 5549 5545 5542 5537 5534 5532 5532 5532 5532 5532 5533 5534 5537 5539 5543 5549 5554 5559 5566 5570 5575 5581 5585 5592 5598 5604 5610 5616 5622 5628 5634 5641 5647 5651 5657 5664 5671 5676 5680 5685 5690 5692 5694 5699 5704 5709 5712 5713 5716 5722 5729 5736 5739 5743 5747 5750 5754 5757 5759 5762 5766 5769
5652 5649 5645 5643 5639 5636 5632 5628 5624 5621 5617 5613 5609 5604 5599 5594 5589 5584 5581 5577 5573 5568 5564 5559 5555 5552 5547 5543 5539 5536 5533 5531 5531 5531 5531 5532 5532 5534 5537 5540 5544 5550 5555 5560 5566 5571 5577 5583 5587 5592 5598 5603 5608 5615 5620 5625 5631 5638 5643 5647 5655 5664 5670 5673 5677 5682 5686 5688 5690 5696 5703 5706 5707 5709 5714 5719 5726 5731 5735 5738 5742 5746 5749 5752 5756 5760 5763 5766
5650 5647 5644 5641 5638 5634 5631 5627 5623 5620 5616 5612 5608 5604 5599 5594 5589 5584 5579 5575 5571 5566 5562 5558 5555 5551 5547 5542 5538 5535 5532 5530 5530 5530 5531 5531 5532 5534 5538 5541 5545 5550 5555 5561 5567 5573 5579 5584 5586 5590 5596 5601 5607 5615 5620 5624 5631 5637 5642 5647 5653 5660 5664 5670 5676 5680 5683 5686 5689 5695 5701 5704 5706 5708 5711 5717 5723 5727 5731 5735 5739 5743 5747 5750 5754 5758 5761 5764
5649 5646 5642 5639 5636 5632 5629 5626 5622 5618 5614 5611 5608 5603 5599 5594 5588 5583 5578 5573 5569 5566 5562 5559 5555 5551 5547 5542 5538 5535 5532 5530 5529 5530 5530 5531 5533 5536 5539 5542 5546 5550 5555 5560 5567 5573 5579 5583 5585 5590 5596 5601 5607 5613 5617 5621 5627 5634 5642 5647 5650 5654 5659 5665 5671 5675 5680 5684 5688 5694 5699 5701 5703 5706 5708 5715 5721 5725 5729 5733 5736 5740 5744 5748 5753 5756 5758 5762
5648 5644 5641 5637 5634 5631 5628 5624 5621 5617 5613 5610 5606 5602 5598 5593 5588 5583 5578 5574 5569 5566 5563 5560 5555 5551 5546 5542 5538 5534 5531 5530 5529 5530 5531 5532 5534 5537 5541 5544 5548 5552 5556 5561 5567 5574 5579 5582 5584 5589 5595 5601 5606 5611 5615 5619 5623 5629 5637 5644 5648 5653 5659 5664 5668 5673 5679 5684 5687 5692 5696 5698 5700 5702 5706 5712 5718 5722 5726 5730 5733 5738 5742 5747 5751 5753 5755 5759
5647 5643 5640 5636 5633 5630 5627 5623 5619 5616 5613 5609 5606 5602 5597 5593 5589 5584 5579 5575 5570 5566 5563 5559 5555 5550 5545 5541 5538 5534 5531 5530 5530 5530 5531 5533 5535 5539 5542 5545 5550 5554 5559 5563 5568 5574 5580 5582 5585 5589 5595 5600 5605 5609 5614 5619 5623 5629 5634 5638 5642 5649 5657 5663 5668 5672 5677 5682 5685 5689 5693 5696 5698 5700 5705 5710 5716 5720 5723 5727 5732 5736 5740 5744 5747 5750 5753 5757
5647 5643 5639 5636 5632 5629 5626 5623 5619 5616 5613 5609 5606 5602 5597 5593 5589 5585 5580 5576 5571 5567 5563 5559 5554 5550 5545 5542 5538 5533 5531 5530 5530 5531 5532 5534 5537 5540 5543 5546 5550 5556 5561 5566 5569 5575 5580 5584 5587 5591 5595 5599 5604 5610 5616 5620 5626 5631 5634 5637 5642 5649 5656 5662 5666 5670 5674 5679 5682 5686 5692 5695 5696 5699 5704 5709 5714 5719 5722 5725 5730 5734 5738 5742 5744 5747 5750 5753
5647 5643 5639 5635 5631 5628 5625 5623 5619 5616 5613 5609 5605 5600 5596 5592 5589 5585 5581 5577 5573 5568 5564 5559 5554 5550 5546 5542 5538 5534 5531 5530 5530 5531 5533 5536 5539 5541 5545 5548 5552 5557 5564 5569 5572 5576 5581 5586 5589 5593 5597 5602 5606 5611 5616 5620 5626 5630 5634 5639 5644 5649 5655 5660 5663 5667 5671 5675 5679 5683 5689 5693 5693 5696 5702 5706 5711 5716 5720 5723 5728 5731 5735 5738 5741 5743 5746 5749
5647 5643 5638 5634 5631 5628 5625 5622 5619 5615 5612 5608 5604 5600 5596 5592 5589 5585 5581 5577 5573 5568 5564 5559 5555 5551 5547 5543 5539 5534 5532 5531 5531 5532 5534 5537 5539 5542 5545 5549 5553 5559 5565 5570 5575 5579 5583 5587 5591 5595 5600 5604 5607 5610 5613 5617 5622 5627 5632 5638 5642 5647 5652 5657 5662 5666 5669 5672 5676 5680 5686 5689 5690 5694 5700 5704 5708 5713 5717 5721 5724 5727 5731 5733 5736 5739 5743 5746
5646 5642 5638 5634 5631 5627 5624 5621 5619 5615 5612 5608 5605 5601 5597 5593 5589 5585 5581 5577 5573 5568 5564 5560 5556 5552 5548 5544 5540 5536 5533 5531 5531 5533 5536 5538 5541 5544 5546 5550 5555 5561 5567 5572 5576 5581 5585 5589 5593 5596 5600 5602 5605 5609 5612 5616 5621 5626 5632 5636 5640 5644 5648 5653 5658 5662 5665 5670 5675 5680 5684 5688 5689 5693 5698 5702 5705 5709 5713 5717 5720 5724 5727 5729 5733 5736 5740 5743
5646 5642 5639 5635 5631 5627 5623 5620 5618 5615 5612 5609 5605 5602 5598 5594 5589 5586 5582 5578 5574 5570 5566 5562 5558 5554 5549 5546 5542 5538 5534 5533 5533 5535 5538 5542 5545 5547 5550 5554 5559 5564 5569 5572 5577 5581 5586 5591 5594 5598 5601 5604 5608 5611 5614 5618 5622 5625 5629 5633 5637 5642 5647 5651 5655 5657 5660 5667 5672 5677 5683 5688 5689 5692 5696 5699 5703 5706 5710 5714 5717 5720 5723 5726 5730 5734 5737 5739
5646 5642 5638 5634 5631 5627 5623 5620 5617 5614 5612 5609 5606 5602 5598 5595 5591 5587 5584 5580 5577 5573 5569 5565 5560 5556 5552 5548 5545 5541 5537 5535 5536 5538 5542 5546 5549 5551 5555 5559 5564 5567 5571 5574 5578 5582 5587 5592 5595 5598 5602 5606 5609 5611 5614 5617 5621 5624 5626 5630 5635 5641 5646 5650 5653 5656 5661 5667 5670 5674 5681 5686 5688 5691 5695 5698 5700 5704 5709 5712 5715 5718 5721 5725 5729 5732 5734 5737
5645 5640 5636 5633 5630 5627 5623 5619 5616 5614 5610 5608 5605 5601 5598 5595 5593 5589 5585 5581 5578 5575 5571 5567 5563 5559 5555 5551 5548 5545 5541 5540 5540 5543 5548 5551 5554 5557 5560 5564 5568 5571 5574 5577 5581 5585 5589 5593 5597 5600 5603 5606 5609 5611 5615 5618 5622 5626 5629 5632 5635 5639 5644 5647 5651 5657 5662 5666 5669 5673 5679 5684 5687 5690 5693 5696 5699 5703 5706 5710 5713 5716 5719 5723 5726 5729 5732 5736
5644 5639 5636 5632 5629 5626 5623 5619 5616 5613 5611 5608 5605 5602 5599 5596 5593 5590 5586 5583 5580 5577 5573 5570 5566 5562 5559 5555 5552 5549 5547 5545 5546 5548 5552 5556 5559 5562 5566 5569 5572 5575 5579 5582 5585 5589 5592 5595 5599 5602 5605 5608 5610 5613 5617 5620 5623 5626 5630 5633 5636 5639 5643 5646 5651 5656 5659 5662 5667 5673 5679 5683 5686 5689 5691 5694 5697 5701 5704 5707 5710 5713 5717 5720 5723 5727 5731 5734
5644 5640 5636 5632 5628 5625 5623 5619 5616 5613 5611 5608 5606 5603 5600 5597 5594 5590 5588 5585 5582 5579 5575 5572 5568 5565 5561 5559 5556 5554 5552 5551 5551 5553 5557 5561 5564 5567 5571 5574 5577 5580 5583 5586 5589 5592 5595 5598 5601 5603 5606 5609 5612 5614 5617 5620 5624 5627 5630 5633 5637 5640 5643 5646 5649 5652 5655 5659 5664 5670 5675 5681 5685 5687 5690 5693 5696 5699 5702 5704 5707 5710 5713 5717 5721 5725 5729 5733
5645 5640 5636 5632 5628 5625 5622 5619 5616 5613 5611 5609 5606 5604 5601 5598 5595 5592 5589 5586 5584 5581 5578 5574 5571 5567 5564 5563 5560 5558 5557 5557 5557 5559 5562 5565 5568 5572 5575 5579 5581 5584 5587 5589 5592 5595 5598 5600 5603 5606 5608 5611 5614 5616 5618 5621 5624 5627 5630 5632 5635 5639 5642 5645 5648 5651 5654 5659 5663 5666 5672 5679 5684 5686 5690 5692 5695 5698 5700 5702 5704 5707 5711 5715 5719 5723 5727 5730
5644 5640 5636 5632 5628 5624 5621 5619 5616 5613 5611 5609 5607 5605 5603 5600 5597 5594 5591 5588 5585 5583 5580 5577 5574 5571 5568 5566 5565 5563 5562 5561 5562 5564 5566 5569 5572 5576 5579 5582 5585 5587 5590 5592 5595 5597 5599 5602 5605 5607 5610 5612 5614 5617 5620 5623 5625 5627 5629 5632 5635 5638 5641 5644 5648 5651 5654 5659 5662 5666 5673 5679 5682 5685 5689 5691 5693 5695 5698 5700 5703 5706 5709 5713 5717 5721 5725 5728
5643 5639 5635 5632 5628 5624 5620 5618 5616 5613 5610 5608 5607 5605 5602 5600 5598 5596 5593 5590 5587 5584 5582 5580 5577 5574 5571 5569 5568 5566 5565 5565 5566 5569 5571 5574 5577 5580 5583 5585 5588 5591 5593 5595 5597 5599 5601 5604 5606 5608 5610 5612 5615 5617 5620 5623 5625 5627 5630 5633 5636 5638 5641 5644 5648 5650 5654 5658 5661 5666 5673 5678 5681 5684 5687 5690 5691 5694 5696 5699 5702 5705 5708 5712 5716 5719 5722 5725